Weather History for KBMG - February, 2013

Change the Weather History Date:

Thursday, February 7, 2013

  Actual Average Record
Temperature  
Mean Temperature 46 °F 31 °F  
Max Temperature 61 °F 41 °F 61 °F (2013)
Min Temperature 30 °F 22 °F -13 °F (2014)
Degree Days  
Heating Degree Days 19 34  
Month to date heating degree days 268 240  
Since 1 July heating degree days 3312 3415  
Cooling Degree Days 0 0  
Month to date cooling degree days 0 0  
Year to date cooling degree days 0 0  
Moisture  
Dew Point 35 °F    
Average Humidity 66    
Maximum Humidity 93    
Minimum Humidity 39    
Precipitation  
Precipitation 0.14 in 0.11 in 2.13 in (1999)
Month to date precipitation 0.23 0.73  
Year to date precipitation 5.69 4.04  
Sea Level Pressure  
Sea Level Pressure 29.97 in    
Wind  
Wind Speed 7 mph (SSE)    
Max Wind Speed 18 mph    
Max Gust Speed 23 mph    
Visibility 7 miles    
Events Rain    
T = Trace of Precipitation, MM = Missing Value Source: NWS Daily Summary

Daily Weather History Graph

Daily Weather History Graph

Search for Another Location

Airport or City:

Trip Planner

Search our weather history database for the weather conditions in past years. The results will help you decide how hot, cold, wet, or windy it might be!

Date:

Astronomy

Feb. 07, 2013 Rise Set
Actual Time 7:47 AM EST 6:14 PM EST
Civil Twilight 7:19 AM EST 6:42 PM EST
Nautical Twilight 6:47 AM EST 7:14 PM EST
Astronomical Twilight 6:16 AM EST 7:45 PM EST
Moon 5:25 AM EST (2/7) 3:39 PM EST (2/7)
Length of Visible Light 11h 23m
Length of Day
10h 27m
Waning Crescent, 9% of the Moon is Illuminated
Feb 7
Waning Crescent
Feb 10
New
Feb 17
First Quarter
Feb 25
Full
Mar 4
Last Quarter

Hourly Weather History & Observations

Time (EST) Temp. Windchill Dew Point Humidity Pressure Visibility Wind Dir Wind Speed Gust Speed Precip Events Conditions
12:53 AM 30.0 °F 24.1 °F 25.0 °F 82% 30.17 in 6.0 mi ESE 5.8 mph - N/A   Haze
1:53 AM 32.0 °F 26.4 °F 25.0 °F 75% 30.15 in 7.0 mi ESE 5.8 mph - N/A   Clear
2:53 AM 30.9 °F 26.2 °F 25.0 °F 79% 30.14 in 6.0 mi ESE 4.6 mph - N/A   Haze
3:53 AM 30.9 °F 23.5 °F 26.1 °F 82% 30.13 in 6.0 mi SE 8.1 mph - N/A   Haze
4:53 AM 30.9 °F 24.3 °F 26.1 °F 82% 30.12 in 6.0 mi ESE 6.9 mph - N/A   Haze
5:53 AM 32.0 °F 27.5 °F 26.1 °F 79% 30.11 in 5.0 mi ESE 4.6 mph - N/A   Haze
6:53 AM 32.0 °F 26.4 °F 26.1 °F 79% 30.10 in 5.0 mi SE 5.8 mph - N/A   Haze
7:53 AM 30.9 °F 23.5 °F 26.1 °F 82% 30.08 in 4.0 mi SE 8.1 mph - N/A   Haze
8:53 AM 32.0 °F 26.4 °F 27.0 °F 82% 30.07 in 4.0 mi ESE 5.8 mph - N/A   Haze
9:53 AM 36.0 °F 30.3 °F 28.9 °F 76% 30.07 in 5.0 mi SE 6.9 mph - N/A   Haze
10:53 AM 41.0 °F 34.7 °F 30.0 °F 65% 30.05 in 7.0 mi SSE 10.4 mph - N/A   Clear
11:53 AM 46.9 °F - 32.0 °F 56% 30.03 in 9.0 mi SSE 6.9 mph - N/A   Clear
12:53 PM 51.1 °F - 33.1 °F 50% 29.98 in 10.0 mi South 3.5 mph - N/A   Clear
1:53 PM 55.0 °F - 34.0 °F 45% 29.94 in 10.0 mi SE 4.6 mph - N/A   Clear
2:53 PM 59.0 °F - 35.1 °F 41% 29.91 in 10.0 mi South 5.8 mph - N/A   Clear
3:53 PM 60.1 °F - 36.0 °F 41% 29.88 in 10.0 mi SSE 6.9 mph - N/A   Clear
4:53 PM 61.0 °F - 37.9 °F 42% 29.86 in 10.0 mi SW 9.2 mph - N/A   Mostly Cloudy
5:53 PM 55.9 °F - 39.0 °F 53% 29.85 in 10.0 mi South 6.9 mph - N/A   Clear
6:53 PM 52.0 °F - 39.0 °F 61% 29.85 in 10.0 mi SW 4.6 mph - N/A   Clear
7:53 PM 54.0 °F - 39.9 °F 59% 29.83 in 10.0 mi South 4.6 mph - N/A   Overcast
8:53 PM 55.9 °F - 41.0 °F 57% 29.82 in 10.0 mi SSW 9.2 mph - N/A   Overcast
9:53 PM 52.0 °F - 44.1 °F 74% 29.83 in 5.0 mi West 11.5 mph 23.0 mph 0.02 in Rain Rain
10:33 PM 48.2 °F - 46.4 °F 93% 29.82 in 5.0 mi WNW 5.8 mph - 0.05 in Rain Light Rain
10:40 PM 48.2 °F - 46.4 °F 93% 29.82 in 4.0 mi WNW 5.8 mph - 0.06 in Rain Light Rain
10:53 PM 48.9 °F - 46.0 °F 90% 29.83 in 4.0 mi WNW 4.6 mph - 0.07 in Rain Light Rain
11:00 PM 48.2 °F - 46.4 °F 93% 29.82 in 3.0 mi WNW 5.8 mph - 0.00 in Rain Light Rain
11:53 PM 46.9 °F - 44.1 °F 90% 29.83 in 4.0 mi WNW 8.1 mph - 0.05 in Rain Light Rain